Raleigh, IL

10:07 PM CST on December 04, 2016 (GMT -0600)
Harrisburg-Raleigh

Weather History for KHSB - January, 2014

Change the Weather History Date:

Saturday, January 4, 2014

  Actual Average (KMWA) Record (KMWA)
Temperature  
Mean Temperature 34 °F -  
Max Temperature 42 °F 40 °F 66 °F (1997)
Min Temperature 26 °F 22 °F 4 °F (1979)
Degree Days  
Heating Degree Days 31    
Moisture  
Dew Point 18 °F    
Average Humidity 52    
Maximum Humidity 79    
Minimum Humidity 37    
Precipitation  
Precipitation 0.00 in - - ()
Sea Level Pressure  
Sea Level Pressure 30.08 in    
Wind  
Wind Speed 12 mph (South)    
Max Wind Speed 24 mph    
Max Gust Speed 30 mph    
Visibility 10 miles    
Events Rain    
Averages and records for this station are not official NWS values.
T = Trace of Precipitation, MM = Missing Value Source: NWS Daily Summary

Daily Weather History Graph

Daily Weather History Graph

Search for Another Location

Airport or City:

Trip Planner

Search our weather history database for the weather conditions in past years. The results will help you decide how hot, cold, wet, or windy it might be!

Date:

Astronomy

Jan. 04, 2014 Rise Set
Actual Time 7:10 AM CST 4:48 PM CST
Civil Twilight 6:40 AM CST 5:17 PM CST
Nautical Twilight 6:08 AM CST 5:50 PM CST
Astronomical Twilight 5:36 AM CST 6:22 PM CST
Moon 9:19 AM CST (1/4) 9:03 PM CST (1/4)
Length of Visible Light 10h 36m
Length of Day
9h 38m
Waxing Crescent, 15% of the Moon is Illuminated
Jan 4
Waxing Crescent
Jan 7
First Quarter
Jan 15
Full
Jan 23
Last Quarter
Jan 30
New

Hourly Weather History & Observations

Time (CST) Temp. Windchill Dew Point Humidity Pressure Visibility Wind Dir Wind Speed Gust Speed Precip Events Conditions
12:15 AM 26.2 °F 15.2 °F 12.2 °F 55% 30.18 in 10.0 mi South 12.7 mph 17.3 mph N/A   Clear
12:35 AM 26.2 °F 15.8 °F 12.2 °F 55% 30.18 in 10.0 mi South 11.5 mph 16.1 mph N/A   Clear
12:55 AM 26.1 °F 15.6 °F 12.7 °F 57% 30.17 in 10.0 mi South 11.5 mph - N/A   Clear
1:15 AM 26.4 °F 16.0 °F 12.2 °F 55% 30.17 in 10.0 mi South 11.5 mph - N/A   Clear
1:35 AM 27.5 °F 15.9 °F 11.7 °F 51% 30.16 in 10.0 mi South 15.0 mph 18.4 mph N/A   Clear
1:55 AM 28.0 °F 18.1 °F 11.7 °F 50% 30.16 in 10.0 mi South 11.5 mph 20.7 mph N/A   Clear
2:15 AM 27.5 °F 15.4 °F 12.0 °F 52% 30.16 in 10.0 mi SSW 16.1 mph 19.6 mph N/A   Clear
2:35 AM 27.5 °F 15.9 °F 12.2 °F 53% 30.16 in 10.0 mi South 15.0 mph 25.3 mph N/A   Clear
2:55 AM 27.3 °F 15.6 °F 12.6 °F 54% 30.15 in 10.0 mi SSW 15.0 mph 24.2 mph N/A   Clear
3:15 AM 27.3 °F 15.2 °F 12.7 °F 54% 30.15 in 10.0 mi SSW 16.1 mph 20.7 mph N/A   Clear
3:35 AM 27.1 °F 16.9 °F 12.9 °F 55% 30.16 in 10.0 mi SSW 11.5 mph 21.9 mph N/A   Clear
3:55 AM 27.1 °F 15.9 °F 13.1 °F 56% 30.15 in 10.0 mi SSW 13.8 mph 18.4 mph N/A   Clear
4:15 AM 27.3 °F 15.6 °F 13.1 °F 55% 30.15 in 10.0 mi SSW 15.0 mph 21.9 mph N/A   Clear
4:35 AM 27.5 °F 16.3 °F 13.1 °F 55% 30.15 in 10.0 mi SSW 13.8 mph - N/A   Clear
4:55 AM 27.9 °F 16.3 °F 13.3 °F 54% 30.14 in 10.0 mi SSW 15.0 mph 19.6 mph N/A   Clear
5:15 AM 28.0 °F 17.0 °F 13.5 °F 54% 30.14 in 10.0 mi SSW 13.8 mph 18.4 mph N/A   Clear
5:35 AM 28.0 °F 15.7 °F 13.6 °F 55% 30.13 in 10.0 mi South 17.3 mph 23.0 mph N/A   Clear
5:55 AM 28.2 °F 16.3 °F 13.6 °F 54% 30.13 in 10.0 mi SSW 16.1 mph 21.9 mph N/A   Clear
6:15 AM 28.2 °F 17.7 °F 14.0 °F 55% 30.14 in 10.0 mi SSW 12.7 mph 20.7 mph N/A   Clear
6:35 AM 28.4 °F 17.0 °F 14.0 °F 55% 30.13 in 10.0 mi SSW 15.0 mph 20.7 mph N/A   Clear
6:55 AM 28.8 °F 17.9 °F 13.8 °F 54% 30.13 in 10.0 mi South 13.8 mph 21.9 mph N/A   Clear
7:15 AM 28.6 °F 17.7 °F 14.0 °F 54% 30.13 in 10.0 mi SSW 13.8 mph 18.4 mph N/A   Clear
7:35 AM 28.9 °F 18.6 °F 14.4 °F 55% 30.13 in 10.0 mi South 12.7 mph 20.7 mph N/A   Clear
7:55 AM 29.3 °F 18.2 °F 14.2 °F 53% 30.13 in 10.0 mi SSW 15.0 mph 20.7 mph N/A   Clear
8:15 AM 30.2 °F 18.1 °F 14.5 °F 52% 30.14 in 10.0 mi SSW 18.4 mph 23.0 mph N/A   Clear
8:35 AM 31.1 °F 19.3 °F 14.7 °F 51% 30.13 in 10.0 mi South 18.4 mph 24.2 mph N/A   Clear
8:55 AM 32.0 °F 19.8 °F 14.9 °F 49% 30.13 in 10.0 mi SSW 20.7 mph 26.5 mph N/A   Clear
9:15 AM 32.9 °F 21.0 °F 15.3 °F 48% 30.12 in 10.0 mi South 20.7 mph 28.8 mph N/A   Clear
9:35 AM 33.8 °F 22.5 °F 15.3 °F 47% 30.13 in 10.0 mi SSW 19.6 mph 29.9 mph N/A   Clear
9:55 AM 35.1 °F 24.5 °F 15.3 °F 44% 30.13 in 10.0 mi SSW 18.4 mph 29.9 mph N/A   Clear
10:15 AM 36.1 °F 24.4 °F 15.8 °F 44% 30.12 in 10.0 mi SSW 24.2 mph 29.9 mph N/A   Clear
10:35 AM 36.9 °F 26.5 °F 16.0 °F 43% 30.12 in 10.0 mi SSW 19.6 mph 27.6 mph N/A   Clear
10:55 AM 38.1 °F 27.9 °F 16.7 °F 42% 30.10 in 10.0 mi SSW 20.7 mph 24.2 mph N/A   Clear
11:15 AM 38.8 °F 29.4 °F 16.9 °F 41% 30.10 in 10.0 mi SSW 18.4 mph 27.6 mph N/A   Clear
11:35 AM 39.2 °F 29.0 °F 16.9 °F 40% 30.09 in 10.0 mi SSW 21.9 mph 27.6 mph N/A   Clear
11:55 AM 40.1 °F 31.3 °F 18.0 °F 41% 30.07 in 10.0 mi SSW 17.3 mph - N/A   Clear
12:15 PM 40.1 °F 31.6 °F 18.1 °F 41% 30.07 in 10.0 mi SSW 16.1 mph 23.0 mph N/A   Clear
12:35 PM 40.6 °F 32.3 °F 18.1 °F 40% 30.06 in 10.0 mi SSW 16.1 mph 28.8 mph N/A   Clear
12:55 PM 41.0 °F 31.9 °F 18.1 °F 40% 30.06 in 10.0 mi SSW 19.6 mph - N/A   Scattered Clouds
1:15 PM 41.9 °F 33.7 °F 17.4 °F 37% 30.05 in 10.0 mi South 17.3 mph 24.2 mph N/A   Mostly Cloudy
1:35 PM 41.4 °F 33.0 °F 18.9 °F 41% 30.02 in 10.0 mi South 17.3 mph 20.7 mph N/A   Overcast
1:55 PM 41.9 °F 32.8 °F 18.3 °F 39% 30.01 in 10.0 mi South 20.7 mph 25.3 mph N/A   Overcast
2:15 PM 42.4 °F 35.3 °F 19.6 °F 40% 30.01 in 10.0 mi South 13.8 mph 18.4 mph N/A   Overcast
2:35 PM 41.9 °F 35.0 °F 19.4 °F 41% 30.01 in 10.0 mi South 12.7 mph 18.4 mph N/A   Overcast
2:55 PM 42.1 °F 35.7 °F 18.1 °F 38% 30.01 in 10.0 mi South 11.5 mph 19.6 mph N/A   Overcast
3:15 PM 41.9 °F 37.5 °F 18.3 °F 39% 30.01 in 10.0 mi SSW 6.9 mph - N/A   Overcast
3:35 PM 41.4 °F 35.7 °F 19.4 °F 41% 30.01 in 10.0 mi South 9.2 mph - N/A   Overcast
3:55 PM 39.9 °F 34.5 °F 23.2 °F 51% 30.00 in 10.0 mi South 8.1 mph - N/A   Overcast
4:15 PM 40.5 °F 34.1 °F 20.1 °F 44% 30.00 in 10.0 mi South 10.4 mph - N/A   Overcast
4:35 PM 41.0 °F 35.8 °F 19.6 °F 42% 29.99 in 10.0 mi South 8.1 mph - N/A   Overcast
4:55 PM 40.1 °F 36.1 °F 21.6 °F 48% 29.99 in 10.0 mi South 5.8 mph - N/A   Overcast
5:15 PM 40.3 °F 38.2 °F 20.3 °F 45% 30.00 in 10.0 mi SW 3.5 mph - N/A   Overcast
5:35 PM 40.1 °F 38.0 °F 21.0 °F 47% 30.01 in 10.0 mi SW 3.5 mph - N/A   Overcast
5:55 PM 39.6 °F - 21.7 °F 49% 30.01 in 10.0 mi Calm Calm - N/A   Overcast
6:15 PM 39.4 °F - 21.6 °F 49% 30.01 in 10.0 mi Calm Calm - N/A   Overcast
6:35 PM 38.3 °F - 22.6 °F 53% 30.01 in 10.0 mi Calm Calm - N/A   Overcast
6:55 PM 37.8 °F - 23.9 °F 57% 30.02 in 10.0 mi Calm Calm - N/A   Overcast
7:15 PM 37.8 °F - 22.3 °F 54% 30.02 in 10.0 mi Calm Calm - N/A   Overcast
7:35 PM 35.8 °F - 27.3 °F 71% 30.02 in 10.0 mi Calm Calm - N/A   Overcast
7:55 PM 36.5 °F - 26.4 °F 67% 30.02 in 10.0 mi Calm Calm - N/A   Overcast
8:15 PM 36.1 °F - 26.6 °F 68% 30.02 in 10.0 mi Calm Calm - N/A   Overcast
8:35 PM 35.8 °F - 27.5 °F 72% 30.02 in 10.0 mi Calm Calm - N/A   Overcast
8:55 PM 35.6 °F 31.7 °F 27.9 °F 73% 30.02 in 10.0 mi SE 4.6 mph - N/A   Overcast
9:15 PM 35.6 °F 31.7 °F 27.7 °F 73% 30.01 in 10.0 mi SE 4.6 mph - N/A   Overcast
9:35 PM 36.0 °F - 27.1 °F 70% 30.01 in 10.0 mi Calm Calm - N/A   Overcast
9:55 PM 38.1 °F 33.7 °F 24.3 °F 57% 30.01 in 10.0 mi South 5.8 mph - N/A   Overcast
10:15 PM 40.1 °F 36.1 °F 25.2 °F 55% 30.01 in 10.0 mi South 5.8 mph - N/A Rain Light Rain
10:35 PM 39.0 °F 36.8 °F 26.4 °F 61% 30.00 in 10.0 mi South 3.5 mph - N/A Rain Light Rain
10:55 PM 38.3 °F - 27.9 °F 66% 30.01 in 10.0 mi Calm Calm - N/A Rain Light Rain
11:15 PM 37.4 °F 34.9 °F 28.4 °F 70% 30.00 in 10.0 mi SE 3.5 mph - N/A   Light Drizzle
11:35 PM 37.4 °F - 29.5 °F 73% 29.99 in 10.0 mi Calm Calm - N/A   Overcast
11:55 PM 36.9 °F - 30.9 °F 79% 30.00 in 10.0 mi Calm Calm - N/A Rain Light Rain